Location: Killam
(52.7910°N, 111.8608°W)
Time: 05:43:42
(UTC+00:00)

A-11 Canister half - Pass Details

Date: 23 February 2026
Orbit: 1524 x 1683 km, 47.3° (Epoch: 13 March)

Event Time Altitude Azimuth Distance (km) Brightness Sun altitude
Rises 03:38:05 0° 280° (W) 4,689 12.9 -25.3°
Reaches altitude 10° 03:41:17 10° 275° (W) 3,698 12.0 -25.8°
Maximum altitude 03:49:56 46° 206° (SSW) 1,962 9.5 -27.0°
Enters shadow 03:53:22 34° 161° (SSE) 2,330 9.6 -27.5°
Drops below altitude 10° 03:58:38 10° 137° (SE) 3,714 - -28.2°
Sets 04:01:51 0° 132° (SE) 4,711 - -28.7°
